Wetterdaten: Mittwoch, 17.09.2014
Datum Zeit Temperatur Luftfeuchte Luftdruck Regen Wind Richtung Richtung Taupunkt Windchill Windben
17.09.2014 00:00 10,4 C 91 % 1017,1 hPa 0,0 l/m 0,0 km/h (0 Bft) S-SO 157 9,0 C 22,8 C 0,0 km/h (0 Bft)
17.09.2014 00:10 11,0 C 91 % 1017,3 hPa 0,0 l/m 0,0 km/h (0 Bft) S-SO 157 9,6 C 22,8 C 0,0 km/h (0 Bft)
17.09.2014 00:20 10,2 C 91 % 1017,3 hPa 0,0 l/m 0,0 km/h (0 Bft) S-SO 157 8,8 C 22,8 C 0,0 km/h (0 Bft)
17.09.2014 00:30 9,9 C 91 % 1017,2 hPa 0,0 l/m 0,0 km/h (0 Bft) S-SO 157 8,5 C 22,8 C 0,0 km/h (0 Bft)
17.09.2014 00:40 9,8 C 91 % 1017,2 hPa 0,0 l/m 0,0 km/h (0 Bft) S-SO 157 8,4 C 22,8 C 0,0 km/h (0 Bft)
17.09.2014 00:50 10,1 C 91 % 1017,2 hPa 0,0 l/m 0,0 km/h (0 Bft) S-SO 157 8,7 C 22,8 C 0,0 km/h (0 Bft)
17.09.2014 01:00 10,1 C 92 % 1017,2 hPa 0,0 l/m 0,0 km/h (0 Bft) S-SO 157 8,9 C 22,8 C 0,0 km/h (0 Bft)
17.09.2014 01:10 11,0 C 92 % 1017,0 hPa 0,0 l/m 0,0 km/h (0 Bft) S-SO 157 9,8 C 22,8 C 0,0 km/h (0 Bft)
17.09.2014 01:20 10,1 C 92 % 1017,0 hPa 0,0 l/m 0,0 km/h (0 Bft) S-SO 157 8,9 C 22,8 C 0,0 km/h (0 Bft)
17.09.2014 01:30 9,5 C 92 % 1016,8 hPa 0,0 l/m 0,0 km/h (0 Bft) S-SO 157 8,3 C 22,8 C 0,0 km/h (0 Bft)
17.09.2014 01:40 10,1 C 92 % 1016,8 hPa 0,0 l/m 0,0 km/h (0 Bft) S-SO 157 8,9 C 22,8 C 0,0 km/h (0 Bft)
17.09.2014 01:50 9,6 C 92 % 1016,6 hPa 0,0 l/m 0,0 km/h (0 Bft) S-SO 157 8,4 C 22,8 C 0,0 km/h (0 Bft)
17.09.2014 02:00 9,2 C 92 % 1016,6 hPa 0,0 l/m 0,0 km/h (0 Bft) S-SO 157 8,0 C 22,8 C 0,0 km/h (0 Bft)
17.09.2014 02:10 9,2 C 92 % 1016,9 hPa 0,0 l/m 0,0 km/h (0 Bft) S-SO 157 8,0 C 22,8 C 0,0 km/h (0 Bft)
17.09.2014 02:20 9,4 C 92 % 1016,9 hPa 0,0 l/m 0,0 km/h (0 Bft) S-SO 157 8,2 C 22,8 C 0,0 km/h (0 Bft)
17.09.2014 02:30 9,6 C 92 % 1016,7 hPa 0,0 l/m 0,0 km/h (0 Bft) S-SO 157 8,4 C 22,8 C 0,0 km/h (0 Bft)
17.09.2014 02:40 9,2 C 92 % 1016,7 hPa 0,0 l/m 0,0 km/h (0 Bft) S-SO 157 8,0 C 22,8 C 0,0 km/h (0 Bft)
17.09.2014 02:50 9,2 C 92 % 1016,5 hPa 0,0 l/m 0,0 km/h (0 Bft) S-SO 157 8,0 C 22,8 C 0,0 km/h (0 Bft)
17.09.2014 03:00 8,7 C 92 % 1016,5 hPa 0,0 l/m 0,0 km/h (0 Bft) S-SO 157 7,5 C 22,8 C 0,0 km/h (0 Bft)
17.09.2014 03:09 9,6 C 92 % 1016,4 hPa 0,0 l/m 0,0 km/h (0 Bft) S-SO 157 8,4 C 22,8 C 0,0 km/h (0 Bft)
17.09.2014 03:20 10,2 C 93 % 1016,4 hPa 0,0 l/m 0,0 km/h (0 Bft) S-SO 157 9,1 C 22,8 C 0,0 km/h (0 Bft)
17.09.2014 03:30 9,7 C 93 % 1016,1 hPa 0,0 l/m 0,0 km/h (0 Bft) S-SO 157 8,6 C 22,8 C 0,0 km/h (0 Bft)
17.09.2014 03:40 9,6 C 93 % 1016,1 hPa 0,0 l/m 0,0 km/h (0 Bft) S-SO 157 8,5 C 22,8 C 0,0 km/h (0 Bft)
17.09.2014 03:50 8,4 C 93 % 1015,9 hPa 0,0 l/m 0,0 km/h (0 Bft) S-SO 157 7,3 C 22,8 C 0,0 km/h (0 Bft)
17.09.2014 04:00 8,7 C 93 % 1015,9 hPa 0,0 l/m 0,0 km/h (0 Bft) S-SO 157 7,6 C 22,8 C 0,0 km/h (0 Bft)
17.09.2014 04:10 8,5 C 93 % 1016,2 hPa 0,0 l/m 0,0 km/h (0 Bft) S-SO 157 7,4 C 22,8 C 0,0 km/h (0 Bft)
17.09.2014 04:20 8,6 C 94 % 1016,2 hPa 0,0 l/m 0,0 km/h (0 Bft) S-SO 157 7,7 C 22,8 C 0,0 km/h (0 Bft)
17.09.2014 04:30 8,4 C 94 % 1016,3 hPa 0,0 l/m 0,0 km/h (0 Bft) S-SO 157 7,5 C 22,8 C 0,0 km/h (0 Bft)
17.09.2014 04:40 8,1 C 94 % 1016,3 hPa 0,0 l/m 0,0 km/h (0 Bft) S-SO 157 7,2 C 22,8 C 0,0 km/h (0 Bft)
17.09.2014 04:50 7,8 C 94 % 1016,2 hPa 0,0 l/m 0,0 km/h (0 Bft) S-SO 157 6,9 C 22,8 C 0,0 km/h (0 Bft)
17.09.2014 05:00 7,8 C 94 % 1016,2 hPa 0,0 l/m 0,0 km/h (0 Bft) S-SO 157 6,9 C 22,8 C 0,0 km/h (0 Bft)
17.09.2014 05:10 8,4 C 94 % 1016,4 hPa 0,0 l/m 0,0 km/h (0 Bft) S-SO 157 7,5 C 22,8 C 0,0 km/h (0 Bft)
17.09.2014 05:20 8,2 C 94 % 1016,4 hPa 0,0 l/m 0,0 km/h (0 Bft) S-SO 157 7,3 C 22,8 C 0,0 km/h (0 Bft)
17.09.2014 05:30 8,0 C 94 % 1016,2 hPa 0,0 l/m 0,0 km/h (0 Bft) S-SO 157 7,1 C 22,8 C 0,0 km/h (0 Bft)
17.09.2014 05:40 8,3 C 94 % 1016,2 hPa 0,0 l/m 0,0 km/h (0 Bft) S-SO 157 7,4 C 22,8 C 0,0 km/h (0 Bft)
17.09.2014 05:50 7,8 C 95 % 1016,2 hPa 0,0 l/m 0,0 km/h (0 Bft) S-SO 157 7,0 C 22,8 C 0,0 km/h (0 Bft)
17.09.2014 06:00 7,8 C 95 % 1016,2 hPa 0,0 l/m 0,0 km/h (0 Bft) S-SO 157 7,0 C 22,8 C 0,0 km/h (0 Bft)
17.09.2014 06:10 8,2 C 94 % 1016,2 hPa 0,0 l/m 0,0 km/h (0 Bft) S-SO 157 7,3 C 22,8 C 0,0 km/h (0 Bft)
17.09.2014 06:20 7,8 C 95 % 1016,2 hPa 0,0 l/m 0,0 km/h (0 Bft) S-SO 157 7,0 C 22,8 C 0,0 km/h (0 Bft)
17.09.2014 06:30 7,9 C 95 % 1016,3 hPa 0,0 l/m 0,0 km/h (0 Bft) S-SO 157 7,1 C 22,8 C 0,0 km/h (0 Bft)
17.09.2014 06:40 8,5 C 95 % 1016,3 hPa 0,0 l/m 0,0 km/h (0 Bft) S-SO 157 7,7 C 22,8 C 0,0 km/h (0 Bft)
17.09.2014 06:50 7,9 C 95 % 1016,3 hPa 0,0 l/m 0,0 km/h (0 Bft) S-SO 157 7,1 C 22,8 C 0,0 km/h (0 Bft)
17.09.2014 07:00 8,0 C 95 % 1016,3 hPa 0,0 l/m 0,0 km/h (0 Bft) S-SO 157 7,2 C 22,8 C 0,0 km/h (0 Bft)
17.09.2014 07:08 7,9 C 95 % 1016,2 hPa 0,0 l/m 0,0 km/h (0 Bft) S-SO 157 7,1 C 22,8 C 0,0 km/h (0 Bft)
17.09.2014 07:10 7,9 C 95 % 1016,2 hPa 0,0 l/m 0,0 km/h (0 Bft) S-SO 157 7,1 C 22,8 C 0,0 km/h (0 Bft)
17.09.2014 07:20 7,9 C 95 % 1016,2 hPa 0,0 l/m 0,0 km/h (0 Bft) S-SO 157 7,1 C 22,8 C 0,0 km/h (0 Bft)
17.09.2014 07:30 7,8 C 95 % 1016,2 hPa 0,0 l/m 0,0 km/h (0 Bft) S-SO 157 7,0 C 22,8 C 0,0 km/h (0 Bft)
17.09.2014 07:40 7,5 C 95 % 1016,2 hPa 0,0 l/m 0,0 km/h (0 Bft) S-SO 157 6,8 C 22,8 C 0,0 km/h (0 Bft)
17.09.2014 07:50 8,1 C 95 % 1015,8 hPa 0,0 l/m 0,0 km/h (0 Bft) S-SO 157 7,3 C 22,8 C 0,0 km/h (0 Bft)
17.09.2014 08:00 8,2 C 95 % 1015,8 hPa 0,0 l/m 0,0 km/h (0 Bft) S-SO 157 7,4 C 22,8 C 0,0 km/h (0 Bft)
17.09.2014 08:10 8,8 C 95 % 1016,4 hPa 0,0 l/m 0,0 km/h (0 Bft) S-SO 157 8,0 C 22,8 C 0,0 km/h (0 Bft)
17.09.2014 08:20 8,8 C 95 % 1016,4 hPa 0,0 l/m 0,0 km/h (0 Bft) S-SO 157 8,0 C 22,8 C 0,0 km/h (0 Bft)
17.09.2014 08:30 9,1 C 95 % 1016,3 hPa 0,0 l/m 0,0 km/h (0 Bft) S-SO 157 8,3 C 22,8 C 0,0 km/h (0 Bft)
17.09.2014 08:40 10,1 C 95 % 1016,3 hPa 0,0 l/m 0,0 km/h (0 Bft) S-SO 157 9,3 C 22,8 C 0,0 km/h (0 Bft)
17.09.2014 08:50 10,2 C 95 % 1016,2 hPa 0,0 l/m 0,0 km/h (0 Bft) S-SO 157 9,4 C 22,8 C 0,0 km/h (0 Bft)
17.09.2014 09:00 13,8 C 94 % 1016,2 hPa 0,0 l/m 0,0 km/h (0 Bft) S-SO 157 12,9 C 22,8 C 0,0 km/h (0 Bft)
17.09.2014 09:10 14,8 C 92 % 1016,1 hPa 0,0 l/m 0,0 km/h (0 Bft) S-SO 157 13,5 C 22,8 C 0,0 km/h (0 Bft)
17.09.2014 09:20 15,9 C 87 % 1016,1 hPa 0,0 l/m 0,0 km/h (0 Bft) S-SO 157 13,7 C 22,8 C 0,0 km/h (0 Bft)
17.09.2014 09:30 16,7 C 81 % 1016,0 hPa 0,0 l/m 0,0 km/h (0 Bft) S-SO 157 13,4 C 22,8 C 0,0 km/h (0 Bft)
17.09.2014 09:40 17,9 C 80 % 1016,0 hPa 0,0 l/m 0,0 km/h (0 Bft) S-SO 157 14,4 C 22,8 C 0,0 km/h (0 Bft)
17.09.2014 09:50 19,3 C 78 % 1016,1 hPa 0,0 l/m 0,0 km/h (0 Bft) S-SO 157 15,4 C 22,8 C 0,0 km/h (0 Bft)
17.09.2014 10:00 19,8 C 73 % 1016,1 hPa 0,0 l/m 0,0 km/h (0 Bft) S-SO 157 14,8 C 22,8 C 0,0 km/h (0 Bft)
17.09.2014 10:09 21,7 C 76 % 1016,3 hPa 0,0 l/m 0,0 km/h (0 Bft) S-SO 157 17,3 C 22,8 C 0,0 km/h (0 Bft)
17.09.2014 10:20 21,3 C 73 % 1016,3 hPa 0,0 l/m 0,0 km/h (0 Bft) S-SO 157 16,3 C 22,8 C 0,0 km/h (0 Bft)
17.09.2014 10:30 22,2 C 72 % 1013,9 hPa 0,0 l/m 0,0 km/h (0 Bft) S-SO 157 16,9 C 22,8 C 0,0 km/h (0 Bft)
17.09.2014 10:40 23,1 C 70 % 1013,9 hPa 0,0 l/m 0,0 km/h (0 Bft) S-SO 157 17,3 C 22,8 C 0,0 km/h (0 Bft)
17.09.2014 10:50 22,9 C 65 % 1017,6 hPa 0,0 l/m 0,0 km/h (0 Bft) S-SO 157 16,0 C 22,8 C 0,0 km/h (0 Bft)
17.09.2014 11:00 23,4 C 63 % 1017,6 hPa 0,0 l/m 0,0 km/h (0 Bft) S-SO 157 15,9 C 22,8 C 0,0 km/h (0 Bft)
17.09.2014 11:10 23,7 C 61 % 1017,6 hPa 0,0 l/m 0,0 km/h (0 Bft) S-SO 157 15,7 C 22,8 C 0,0 km/h (0 Bft)
17.09.2014 11:20 23,7 C 53 % 1017,6 hPa 0,0 l/m 0,0 km/h (0 Bft) S-SO 157 13,5 C 22,8 C 0,0 km/h (0 Bft)
17.09.2014 11:30 24,4 C 51 % 1017,4 hPa 0,0 l/m 0,0 km/h (0 Bft) S-SO 157 13,6 C 22,8 C 0,0 km/h (0 Bft)
17.09.2014 11:40 25,0 C 48 % 1017,4 hPa 0,0 l/m 0,0 km/h (0 Bft) S-SO 157 13,2 C 22,8 C 0,0 km/h (0 Bft)
17.09.2014 11:50 24,4 C 44 % 1017,4 hPa 0,0 l/m 0,0 km/h (0 Bft) S-SO 157 11,3 C 22,8 C 0,0 km/h (0 Bft)
17.09.2014 12:00 24,9 C 45 % 1017,4 hPa 0,0 l/m 0,0 km/h (0 Bft) S-SO 157 12,1 C 22,8 C 0,0 km/h (0 Bft)
17.09.2014 12:10 25,7 C 39 % 1017,6 hPa 0,0 l/m 0,0 km/h (0 Bft) S-SO 157 10,7 C 22,8 C 0,0 km/h (0 Bft)
17.09.2014 12:20 25,0 C 41 % 1017,6 hPa 0,0 l/m 0,0 km/h (0 Bft) S-SO 157 10,8 C 22,8 C 0,0 km/h (0 Bft)
17.09.2014 12:30 25,2 C 43 % 1017,5 hPa 0,0 l/m 0,0 km/h (0 Bft) S-SO 157 11,7 C 22,8 C 0,0 km/h (0 Bft)
17.09.2014 12:40 25,8 C 43 % 1017,5 hPa 0,0 l/m 0,0 km/h (0 Bft) S-SO 157 12,3 C 22,8 C 0,0 km/h (0 Bft)
17.09.2014 12:50 24,7 C 44 % 1017,6 hPa 0,0 l/m 0,0 km/h (0 Bft) S-SO 157 11,6 C 22,8 C 0,0 km/h (0 Bft)
17.09.2014 13:00 24,8 C 42 % 1017,6 hPa 0,0 l/m 0,0 km/h (0 Bft) S-SO 157 11,0 C 22,8 C 0,0 km/h (0 Bft)
17.09.2014 13:09 24,6 C 43 % 1017,4 hPa 0,0 l/m 0,0 km/h (0 Bft) S-SO 157 11,2 C 22,8 C 0,0 km/h (0 Bft)
17.09.2014 13:10 24,6 C 43 % 1017,4 hPa 0,0 l/m 0,0 km/h (0 Bft) S-SO 157 11,2 C 22,8 C 0,0 km/h (0 Bft)
17.09.2014 13:20 24,5 C 46 % 1017,4 hPa 0,0 l/m 0,0 km/h (0 Bft) S-SO 157 12,1 C 22,8 C 0,0 km/h (0 Bft)
17.09.2014 13:30 24,3 C 44 % 1017,4 hPa 0,0 l/m 0,0 km/h (0 Bft) S-SO 157 11,3 C 22,8 C 0,0 km/h (0 Bft)
17.09.2014 13:40 24,0 C 45 % 1017,4 hPa 0,0 l/m 0,0 km/h (0 Bft) S-SO 157 11,3 C 22,8 C 0,0 km/h (0 Bft)
17.09.2014 13:50 24,4 C 46 % 1017,4 hPa 0,0 l/m 0,0 km/h (0 Bft) S-SO 157 12,0 C 22,8 C 0,0 km/h (0 Bft)
17.09.2014 14:00 24,3 C 46 % 1017,4 hPa 0,0 l/m 0,0 km/h (0 Bft) S-SO 157 11,9 C 22,8 C 0,0 km/h (0 Bft)
17.09.2014 14:10 24,2 C 45 % 1017,6 hPa 0,0 l/m 0,0 km/h (0 Bft) S-SO 157 11,5 C 22,8 C 0,0 km/h (0 Bft)
17.09.2014 14:20 24,3 C 44 % 1017,6 hPa 0,0 l/m 0,0 km/h (0 Bft) S-SO 157 11,3 C 22,8 C 0,0 km/h (0 Bft)
17.09.2014 14:30 24,6 C 45 % 1017,3 hPa 0,0 l/m 0,0 km/h (0 Bft) S-SO 157 11,9 C 22,8 C 0,0 km/h (0 Bft)
17.09.2014 14:40 24,5 C 46 % 1017,3 hPa 0,0 l/m 0,0 km/h (0 Bft) S-SO 157 12,1 C 22,8 C 0,0 km/h (0 Bft)
17.09.2014 14:50 24,7 C 43 % 1017,4 hPa 0,0 l/m 0,0 km/h (0 Bft) S-SO 157 11,3 C 22,8 C 0,0 km/h (0 Bft)
17.09.2014 15:00 24,8 C 44 % 1017,4 hPa 0,0 l/m 0,0 km/h (0 Bft) S-SO 157 11,7 C 22,8 C 0,0 km/h (0 Bft)
17.09.2014 15:10 24,2 C 45 % 1017,2 hPa 0,0 l/m 0,0 km/h (0 Bft) S-SO 157 11,5 C 22,8 C 0,0 km/h (0 Bft)
17.09.2014 15:20 24,6 C 42 % 1017,2 hPa 0,0 l/m 0,0 km/h (0 Bft) S-SO 157 10,8 C 22,8 C 0,0 km/h (0 Bft)
17.09.2014 15:30 24,4 C 43 % 1016,9 hPa 0,0 l/m 0,0 km/h (0 Bft) S-SO 157 11,0 C 22,8 C 0,0 km/h (0 Bft)
17.09.2014 15:40 24,3 C 43 % 1016,9 hPa 0,0 l/m 0,0 km/h (0 Bft) S-SO 157 10,9 C 22,8 C 0,0 km/h (0 Bft)
17.09.2014 15:50 23,9 C 45 % 1016,9 hPa 0,0 l/m 0,0 km/h (0 Bft) S-SO 157 11,2 C 22,8 C 0,0 km/h (0 Bft)
17.09.2014 16:00 24,2 C 44 % 1016,9 hPa 0,0 l/m 0,0 km/h (0 Bft) S-SO 157 11,2 C 22,8 C 0,0 km/h (0 Bft)
17.09.2014 16:10 23,9 C 45 % 1016,8 hPa 0,0 l/m 0,0 km/h (0 Bft) S-SO 157 11,2 C 22,8 C 0,0 km/h (0 Bft)
17.09.2014 16:20 23,8 C 44 % 1016,8 hPa 0,0 l/m 0,0 km/h (0 Bft) S-SO 157 10,8 C 22,8 C 0,0 km/h (0 Bft)
17.09.2014 16:30 23,4 C 45 % 1016,6 hPa 0,0 l/m 0,0 km/h (0 Bft) S-SO 157 10,8 C 22,8 C 0,0 km/h (0 Bft)
17.09.2014 16:40 23,2 C 46 % 1016,6 hPa 0,0 l/m 0,0 km/h (0 Bft) S-SO 157 10,9 C 22,8 C 0,0 km/h (0 Bft)
17.09.2014 16:50 23,2 C 48 % 1016,5 hPa 0,0 l/m 0,0 km/h (0 Bft) S-SO 157 11,6 C 22,8 C 0,0 km/h (0 Bft)
17.09.2014 17:00 22,2 C 55 % 1016,5 hPa 0,0 l/m 0,0 km/h (0 Bft) S-SO 157 12,7 C 22,8 C 0,0 km/h (0 Bft)
17.09.2014 17:08 21,8 C 59 % 1016,4 hPa 0,0 l/m 0,0 km/h (0 Bft) S-SO 157 13,4 C 22,8 C 0,0 km/h (0 Bft)
17.09.2014 17:10 21,8 C 59 % 1016,4 hPa 0,0 l/m 0,0 km/h (0 Bft) S-SO 157 13,4 C 22,8 C 0,0 km/h (0 Bft)
17.09.2014 17:20 21,3 C 62 % 1016,4 hPa 0,0 l/m 0,0 km/h (0 Bft) S-SO 157 13,7 C 22,8 C 0,0 km/h (0 Bft)
17.09.2014 17:30 20,9 C 66 % 1016,2 hPa 0,0 l/m 0,0 km/h (0 Bft) S-SO 157 14,3 C 22,8 C 0,0 km/h (0 Bft)
17.09.2014 17:40 20,6 C 67 % 1016,2 hPa 0,0 l/m 0,0 km/h (0 Bft) S-SO 157 14,3 C 22,8 C 0,0 km/h (0 Bft)
17.09.2014 17:50 20,4 C 68 % 1018,1 hPa 0,0 l/m 0,0 km/h (0 Bft) S-SO 157 14,3 C 22,8 C 0,0 km/h (0 Bft)
17.09.2014 18:00 20,2 C 69 % 1018,1 hPa 0,0 l/m 0,0 km/h (0 Bft) S-SO 157 14,3 C 22,8 C 0,0 km/h (0 Bft)
17.09.2014 18:10 19,9 C 70 % 1017,2 hPa 0,0 l/m 0,0 km/h (0 Bft) S-SO 157 14,3 C 22,8 C 0,0 km/h (0 Bft)
17.09.2014 18:20 19,8 C 71 % 1017,2 hPa 0,0 l/m 0,0 km/h (0 Bft) S-SO 157 14,4 C 22,8 C 0,0 km/h (0 Bft)
17.09.2014 18:30 19,2 C 73 % 1016,4 hPa 0,0 l/m 0,0 km/h (0 Bft) S-SO 157 14,2 C 22,8 C 0,0 km/h (0 Bft)
17.09.2014 18:40 19,0 C 74 % 1016,4 hPa 0,0 l/m 0,0 km/h (0 Bft) S-SO 157 14,3 C 22,8 C 0,0 km/h (0 Bft)
17.09.2014 18:50 18,4 C 75 % 1016,1 hPa 0,0 l/m 0,0 km/h (0 Bft) S-SO 157 13,9 C 22,8 C 0,0 km/h (0 Bft)
17.09.2014 19:00 17,9 C 76 % 1016,1 hPa 0,0 l/m 0,0 km/h (0 Bft) S-SO 157 13,6 C 22,8 C 0,0 km/h (0 Bft)
17.09.2014 19:10 17,7 C 77 % 1016,2 hPa 0,0 l/m 0,0 km/h (0 Bft) S-SO 157 13,6 C 22,8 C 0,0 km/h (0 Bft)
17.09.2014 19:20 17,5 C 78 % 1016,2 hPa 0,0 l/m 0,0 km/h (0 Bft) S-SO 157 13,6 C 22,8 C 0,0 km/h (0 Bft)
17.09.2014 19:30 16,9 C 79 % 1016,0 hPa 0,0 l/m 0,0 km/h (0 Bft) S-SO 157 13,2 C 22,8 C 0,0 km/h (0 Bft)
17.09.2014 19:40 16,6 C 80 % 1016,0 hPa 0,0 l/m 0,0 km/h (0 Bft) S-SO 157 13,1 C 22,8 C 0,0 km/h (0 Bft)
17.09.2014 19:50 16,1 C 81 % 1015,7 hPa 0,0 l/m 0,0 km/h (0 Bft) S-SO 157 12,8 C 22,8 C 0,0 km/h (0 Bft)
17.09.2014 20:00 15,6 C 82 % 1015,7 hPa 0,0 l/m 0,0 km/h (0 Bft) S-SO 157 12,5 C 22,8 C 0,0 km/h (0 Bft)
17.09.2014 20:08 15,6 C 82 % 1015,9 hPa 0,0 l/m 0,0 km/h (0 Bft) S-SO 157 12,5 C 22,8 C 0,0 km/h (0 Bft)
17.09.2014 20:10 15,6 C 82 % 1015,9 hPa 0,0 l/m 0,0 km/h (0 Bft) S-SO 157 12,5 C 22,8 C 0,0 km/h (0 Bft)
17.09.2014 20:20 14,5 C 81 % 1015,9 hPa 0,0 l/m 0,0 km/h (0 Bft) S-SO 157 11,3 C 22,8 C 0,0 km/h (0 Bft)
17.09.2014 20:30 14,2 C 82 % 1015,9 hPa 0,0 l/m 0,0 km/h (0 Bft) S-SO 157 11,2 C 22,8 C 0,0 km/h (0 Bft)
17.09.2014 20:40 13,4 C 83 % 1015,9 hPa 0,0 l/m 0,0 km/h (0 Bft) S-SO 157 10,6 C 22,8 C 0,0 km/h (0 Bft)
17.09.2014 20:50 13,1 C 83 % 1016,1 hPa 0,0 l/m 0,0 km/h (0 Bft) S-SO 157 10,3 C 22,8 C 0,0 km/h (0 Bft)
17.09.2014 21:00 13,1 C 84 % 1016,1 hPa 0,0 l/m 0,0 km/h (0 Bft) S-SO 157 10,5 C 22,8 C 0,0 km/h (0 Bft)
17.09.2014 21:10 12,6 C 85 % 1016,0 hPa 0,0 l/m 0,0 km/h (0 Bft) S-SO 157 10,1 C 22,8 C 0,0 km/h (0 Bft)
17.09.2014 21:20 13,5 C 87 % 1016,0 hPa 0,0 l/m 0,0 km/h (0 Bft) S-SO 157 11,4 C 22,8 C 0,0 km/h (0 Bft)
17.09.2014 21:30 12,5 C 87 % 1016,1 hPa 0,0 l/m 0,0 km/h (0 Bft) S-SO 157 10,4 C 22,8 C 0,0 km/h (0 Bft)
17.09.2014 21:40 13,1 C 87 % 1016,1 hPa 0,0 l/m 0,0 km/h (0 Bft) S-SO 157 11,0 C 22,8 C 0,0 km/h (0 Bft)
17.09.2014 21:50 12,5 C 87 % 1016,0 hPa 0,0 l/m 0,0 km/h (0 Bft) S-SO 157 10,4 C 22,8 C 0,0 km/h (0 Bft)
17.09.2014 22:00 12,7 C 88 % 1016,0 hPa 0,0 l/m 0,0 km/h (0 Bft) S-SO 157 10,8 C 22,8 C 0,0 km/h (0 Bft)
17.09.2014 22:10 12,8 C 88 % 1016,1 hPa 0,0 l/m 0,0 km/h (0 Bft) S-SO 157 10,9 C 22,8 C 0,0 km/h (0 Bft)
17.09.2014 22:20 12,9 C 88 % 1016,1 hPa 0,0 l/m 0,0 km/h (0 Bft) S-SO 157 11,0 C 22,8 C 0,0 km/h (0 Bft)
17.09.2014 22:30 13,0 C 88 % 1016,3 hPa 0,0 l/m 0,0 km/h (0 Bft) S-SO 157 11,1 C 22,8 C 0,0 km/h (0 Bft)
17.09.2014 22:40 12,6 C 89 % 1016,3 hPa 0,0 l/m 0,0 km/h (0 Bft) S-SO 157 10,8 C 22,8 C 0,0 km/h (0 Bft)
17.09.2014 22:50 12,2 C 89 % 1016,2 hPa 0,0 l/m 0,0 km/h (0 Bft) S-SO 157 10,4 C 22,8 C 0,0 km/h (0 Bft)
17.09.2014 23:00 12,2 C 89 % 1016,2 hPa 0,0 l/m 0,0 km/h (0 Bft) S-SO 157 10,4 C 22,8 C 0,0 km/h (0 Bft)
17.09.2014 23:10 12,1 C 89 % 1016,2 hPa 0,0 l/m 0,0 km/h (0 Bft) S-SO 157 10,3 C 22,8 C 0,0 km/h (0 Bft)
17.09.2014 23:20 12,1 C 89 % 1016,2 hPa 0,0 l/m 0,0 km/h (0 Bft) S-SO 157 10,3 C 22,8 C 0,0 km/h (0 Bft)
17.09.2014 23:30 11,8 C 90 % 1016,1 hPa 0,0 l/m 0,0 km/h (0 Bft) S-SO 157 10,2 C 22,8 C 0,0 km/h (0 Bft)
17.09.2014 23:40 11,8 C 90 % 1016,1 hPa 0,0 l/m 0,0 km/h (0 Bft) S-SO 157 10,2 C 22,8 C 0,0 km/h (0 Bft)
17.09.2014 23:50 11,4 C 90 % 1016,1 hPa 0,0 l/m 0,0 km/h (0 Bft) S-SO 157 9,8 C 22,8 C 0,0 km/h (0 Bft)
_ Min-Zeit 07:40 12:10 10:40 - 23:50 - - 07:40 23:50 23:50
Minimum _ 7,5 C 39 % 1013,9 hPa - 0,0 km/h (0 Bft) - - 6,8 C 22,8 C 0,0 km/h (0 Bft)
_ Max-Zeit 12:40 08:50 18:00 23:50 23:50 - - 10:40 23:50 23:50
Maximum _ 25,8 C 95 % 1018,1 hPa 0,0 l/m 0,0 km/h
S-SO (0 Bft)
- - 17,3 C 22,8 C 0,0 km/h
S-SO (0 Bft)
Durchschnitt _ 15,6 C 76 % 1016,6 hPa #0,0 l/m 0,0 km/h (0 Bft) - - - 10,7 C 22,8 C 0,0 km/h (0 Bft)